This is the latest recevied weather packets stored in our database for station/object OE-11179. If no packets are shown the sender has not sent any weather packets the latest 10 day(s).
| Time | Temp. | Humidity | Pressure | Rain* | Wind** | Luminosity | Snow |
|---|---|---|---|---|---|---|---|
| 1787861132 | 18.89° C | 74% | - | 0 mm | - | - | - |
| 1787860532 | 18.33° C | 76% | - | 0 mm | - | - | - |
| 1787859706 | 18.33° C | 77% | - | 0 mm | - | - | - |
| 1787859332 | 18.33° C | 77% | - | 0 mm | - | - | - |
| 1787858732 | 18.89° C | 75% | - | 0 mm | - | - | - |
| 1787857905 | 19.44° C | 77% | - | 0 mm | - | - | - |
| 1787857532 | 20° C | 73% | - | 0 mm | - | - | - |
| 1787856932 | 20° C | 74% | - | 0 mm | - | - | - |
| 1787856105 | 20° C | 74% | - | 0 mm | - | - | - |
| 1787855731 | 20.56° C | 72% | - | 0 mm | - | - | - |
| 1787855132 | 20.56° C | 73% | - | 0 mm | - | - | - |
| 1787854305 | 21.11° C | 70% | - | 0 mm | - | - | - |
| 1787853932 | 21.11° C | 72% | - | 0 mm | - | - | - |
| 1787852744 | 22.22° C | 72% | - | 0 mm | - | - | - |
| 1787852131 | 22.78° C | 69% | - | 0 mm | - | - | - |
| 1787851532 | 23.33° C | 71% | - | 0 mm | - | - | - |
| 1787850705 | 23.33° C | 72% | - | 0 mm | - | - | - |
| 1787850332 | 23.33° C | 69% | - | 0 mm | - | - | - |
| 1787849732 | 23.33° C | 69% | - | 0 mm | - | - | - |
| 1787848905 | 23.89° C | 69% | - | 0 mm | - | - | - |
| 1787848532 | 24.44° C | 65% | - | 0 mm | - | - | - |
| 1787847932 | 25° C | 64% | - | 0 mm | - | - | - |
| 1787847105 | 25° C | 65% | - | 0 mm | - | - | - |
| 1787846732 | 25° C | 64% | - | 0 mm | - | - | - |
| 1787846132 | 25.56° C | 59% | - | 0 mm | - | - | - |
* Rain latest hour (hover to see other rain measurements)
** Current wind speed in m/s (hover to see current wind gust speed)